^^
Daily Summary for April 04, 2021 Units:  Metric    English   Both
Daily Weekly Monthly Yearly Custom
  High: Low: Average:
Temperature: 20 °C 3.3 °C 9.8 °C
Dew Point: 8.9 °C 1.7 °C 4.7 °C
Humidity: 92% 47% 73%
Wind Speed: 25.7km/h 0km/h 6.1km/h
Wind Gust: 25.7km/h - -
Wind- - SSE
Pressure: 1026 hPa 1022.6 hPa -
Precipitation: 0 mm    
Historical Graphs
 
 
Tabular Data for April 04, 2021
Time Temperature Dew Point Pressure Wind Wind Speed Wind Gust Humidity Rainfall Rate (Hourly) solar
00:04 7.2 °C 3.9 °C 1026 hPa Calm     78% 0 mm 0.00 W/m2
00:09 7.2 °C 3.9 °C 1026 hPa Calm     78% 0 mm 0.00 W/m2
00:14 7.2 °C 3.9 °C 1026 hPa Calm     79% 0 mm 0.00 W/m2
00:19 7.2 °C 3.9 °C 1026 hPa Calm     79% 0 mm 0.00 W/m2
00:24 7.2 °C 3.3 °C 1026 hPa Calm     79% 0 mm 0.00 W/m2
00:29 6.7 °C 3.3 °C 1026 hPa Calm     79% 0 mm 0.00 W/m2
00:34 6.7 °C 3.9 °C 1026 hPa Calm     80% 0 mm 0.00 W/m2
00:39 6.7 °C 3.9 °C 1026 hPa Calm     80% 0 mm 0.00 W/m2
00:44 6.7 °C 3.3 °C 1026 hPa Calm     79% 0 mm 0.00 W/m2
00:49 6.7 °C 3.3 °C 1026 hPa Calm     79% 0 mm 0.00 W/m2
00:54 6.7 °C 3.3 °C 1026 hPa Calm     79% 0 mm 0.00 W/m2
00:59 6.7 °C 3.3 °C 1026 hPa Calm     79% 0 mm 0.00 W/m2
01:04 6.1 °C 2.8 °C 1026 hPa Calm     79% 0 mm 0.00 W/m2
01:09 6.1 °C 2.8 °C 1026 hPa SSE 3.2 km/h   80% 0 mm 0.00 W/m2
01:14 6.1 °C 2.8 °C 1026 hPa Calm   3.2 km/h 80% 0 mm 0.00 W/m2
01:19 6.1 °C 3.3 °C 1026 hPa SSE 3.2 km/h   81% 0 mm 0.00 W/m2
01:24 6.1 °C 3.3 °C 1026 hPa Calm   3.2 km/h 81% 0 mm 0.00 W/m2
01:29 6.1 °C 3.3 °C 1026 hPa Calm     82% 0 mm 0.00 W/m2
01:34 6.1 °C 3.3 °C 1026 hPa Calm     82% 0 mm 0.00 W/m2
01:39 6.1 °C 3.3 °C 1026 hPa Calm     83% 0 mm 0.00 W/m2
01:44 6.1 °C 3.3 °C 1026 hPa Calm     83% 0 mm 0.00 W/m2
01:49 6.1 °C 3.3 °C 1026 hPa Calm     82% 0 mm 0.00 W/m2
01:54 6.1 °C 3.3 °C 1026 hPa Calm     82% 0 mm 0.00 W/m2
01:59 5.6 °C 2.8 °C 1026 hPa Calm     82% 0 mm 0.00 W/m2
02:04 5.6 °C 2.8 °C 1026 hPa Calm     82% 0 mm 0.00 W/m2
02:09 5.6 °C 2.8 °C 1026 hPa Calm     82% 0 mm 0.00 W/m2
02:14 5.6 °C 2.8 °C 1026 hPa Calm     82% 0 mm 0.00 W/m2
02:19 5.6 °C 2.8 °C 1026 hPa Calm     82% 0 mm 0.00 W/m2
02:24 5.6 °C 2.2 °C 1026 hPa Calm     82% 0 mm 0.00 W/m2
02:29 5 °C 2.2 °C 1026 hPa Calm     82% 0 mm 0.00 W/m2
02:34 5 °C 2.2 °C 1026 hPa Calm     83% 0 mm 0.00 W/m2
02:39 5 °C 2.2 °C 1026 hPa Calm     83% 0 mm 0.00 W/m2
02:44 5 °C 2.2 °C 1026 hPa Calm     83% 0 mm 0.00 W/m2
02:49 5 °C 2.2 °C 1026 hPa Calm     83% 0 mm 0.00 W/m2
02:54 5 °C 2.2 °C 1026 hPa Calm     84% 0 mm 0.00 W/m2
02:59 5 °C 2.2 °C 1026 hPa Calm     84% 0 mm 0.00 W/m2
03:04 5 °C 2.2 °C 1026 hPa Calm     84% 0 mm 0.00 W/m2
03:09 5 °C 2.2 °C 1026 hPa Calm     84% 0 mm 0.00 W/m2
03:14 4.4 °C 2.2 °C 1026 hPa Calm     84% 0 mm 0.00 W/m2
03:19 4.4 °C 2.2 °C 1026 hPa Calm     84% 0 mm 0.00 W/m2
03:24 4.4 °C 2.2 °C 1026 hPa Calm     84% 0 mm 0.00 W/m2
03:29 4.4 °C 1.7 °C 1026 hPa Calm     84% 0 mm 0.00 W/m2
03:34 4.4 °C 1.7 °C 1026 hPa Calm     84% 0 mm 0.00 W/m2
03:39 4.4 °C 1.7 °C 1026 hPa Calm     84% 0 mm 0.00 W/m2
03:44 4.4 °C 1.7 °C 1026 hPa Calm     85% 0 mm 0.00 W/m2
03:49 3.9 °C 1.7 °C 1026 hPa Calm     85% 0 mm 0.00 W/m2
03:54 3.9 °C 1.7 °C 1026 hPa Calm     85% 0 mm 0.00 W/m2
03:59 3.9 °C 1.7 °C 1026 hPa Calm     85% 0 mm 0.00 W/m2
04:04 3.9 °C 1.7 °C 1026 hPa Calm     86% 0 mm 0.00 W/m2
04:09 3.9 °C 1.7 °C 1026 hPa Calm     86% 0 mm 0.00 W/m2
04:14 3.9 °C 1.7 °C 1026 hPa Calm     86% 0 mm 0.00 W/m2
04:18 3.9 °C 1.7 °C 1026 hPa Calm     86% 0 mm 0.00 W/m2
04:24 3.9 °C 1.7 °C 1026 hPa Calm     86% 0 mm 0.00 W/m2
04:29 3.9 °C 1.7 °C 1026 hPa Calm     86% 0 mm 0.00 W/m2
04:34 3.9 °C 1.7 °C 1026 hPa Calm     86% 0 mm 0.00 W/m2
04:39 3.9 °C 1.7 °C 1026 hPa Calm     86% 0 mm 0.00 W/m2
04:44 3.9 °C 1.7 °C 1026 hPa Calm     86% 0 mm 0.00 W/m2
04:49 3.9 °C 1.7 °C 1026 hPa Calm     86% 0 mm 0.00 W/m2
04:54 3.9 °C 1.7 °C 1026 hPa Calm     86% 0 mm 0.00 W/m2
04:59 3.9 °C 1.7 °C 1026 hPa Calm     86% 0 mm 0.00 W/m2
05:04 3.9 °C 1.7 °C 1026 hPa Calm     86% 0 mm 0.00 W/m2
05:09 3.9 °C 1.7 °C 1026 hPa Calm     86% 0 mm 0.00 W/m2
05:14 3.9 °C 1.7 °C 1026 hPa Calm     87% 0 mm 0.00 W/m2
05:19 3.9 °C 1.7 °C 1026 hPa Calm     87% 0 mm 0.00 W/m2
05:24 3.9 °C 1.7 °C 1026 hPa Calm     87% 0 mm 0.00 W/m2
05:29 3.9 °C 1.7 °C 1026 hPa Calm     87% 0 mm 0.00 W/m2
05:34 3.3 °C 1.7 °C 1026 hPa Calm     87% 0 mm 0.00 W/m2
05:39 3.3 °C 1.7 °C 1026 hPa Calm     87% 0 mm 0.00 W/m2
05:44 3.3 °C 1.7 °C 1026 hPa Calm     87% 0 mm 0.00 W/m2
05:49 3.3 °C 1.7 °C 1026 hPa Calm     87% 0 mm 0.00 W/m2
05:54 3.3 °C 1.7 °C 1026 hPa Calm     87% 0 mm 0.00 W/m2
05:59 3.3 °C 1.7 °C 1026 hPa Calm     87% 0 mm 0.00 W/m2
06:04 3.3 °C 1.7 °C 1026 hPa Calm     87% 0 mm 0.00 W/m2
06:09 3.3 °C 1.7 °C 1026 hPa Calm     88% 0 mm 0.00 W/m2
06:14 3.3 °C 1.7 °C 1026 hPa Calm     88% 0 mm 0.00 W/m2
06:19 3.3 °C 1.7 °C 1026 hPa Calm     88% 0 mm 0.00 W/m2
06:24 3.3 °C 1.7 °C 1026 hPa Calm     88% 0 mm 0.00 W/m2
06:29 3.3 °C 1.7 °C 1026 hPa Calm     88% 0 mm 0.00 W/m2
06:34 3.3 °C 1.7 °C 1026 hPa Calm     88% 0 mm 0.00 W/m2
06:39 3.3 °C 1.7 °C 1026 hPa Calm     88% 0 mm 0.00 W/m2
06:44 3.3 °C 1.7 °C 1026 hPa Calm     88% 0 mm 0.00 W/m2
06:49 3.3 °C 1.7 °C 1026 hPa Calm     88% 0 mm 0.00 W/m2
06:54 3.3 °C 1.7 °C 1026 hPa Calm     88% 0 mm 7.00 W/m2
06:59 3.3 °C 1.7 °C 1026 hPa Calm     88% 0 mm 9.00 W/m2
07:04 3.3 °C 1.7 °C 1026 hPa Calm     88% 0 mm 9.00 W/m2
07:09 3.3 °C 1.7 °C 1026 hPa Calm     88% 0 mm 11.00 W/m2
07:14 3.3 °C 1.7 °C 1026 hPa Calm     89% 0 mm 12.00 W/m2
07:19 3.3 °C 1.7 °C 1026 hPa Calm     89% 0 mm 14.00 W/m2
07:24 3.3 °C 1.7 °C 1026 hPa Calm     89% 0 mm 16.00 W/m2
07:29 3.3 °C 1.7 °C 1026 hPa Calm     89% 0 mm 19.00 W/m2
07:34 3.3 °C 1.7 °C 1026 hPa Calm     89% 0 mm 21.00 W/m2
07:39 3.3 °C 1.7 °C 1026 hPa Calm     89% 0 mm 23.00 W/m2
07:44 3.3 °C 1.7 °C 1026 hPa Calm     89% 0 mm 25.00 W/m2
07:49 3.3 °C 1.7 °C 1026 hPa Calm     89% 0 mm 26.00 W/m2
07:54 3.9 °C 2.2 °C 1026 hPa Calm     90% 0 mm 28.00 W/m2
07:59 3.9 °C 2.2 °C 1026 hPa SSE 3.2 km/h   90% 0 mm 32.00 W/m2
08:04 3.9 °C 2.2 °C 1026 hPa Calm   3.2 km/h 90% 0 mm 33.00 W/m2
08:09 3.9 °C 2.8 °C 1026 hPa NE 6.4 km/h 1.6 km/h 90% 0 mm 35.00 W/m2
08:14 4.4 °C 2.8 °C 1026 hPa ESE 6.4 km/h 4.8 km/h 91% 0 mm 40.00 W/m2
08:19 4.4 °C 3.3 °C 1026 hPa ESE 6.4 km/h 3.2 km/h 91% 0 mm 77.00 W/m2
08:24 4.4 °C 3.3 °C 1026 hPa East 9.7 km/h 9.7 km/h 91% 0 mm 146.00 W/m2
08:29 5 °C 3.3 °C 1026 hPa ESE 3.2 km/h 9.7 km/h 91% 0 mm 120.00 W/m2
08:34 5 °C 3.9 °C 1026 hPa ESE 9.7 km/h 3.2 km/h 91% 0 mm 288.00 W/m2
08:39 5.6 °C 3.9 °C 1026 hPa South 9.7 km/h 9.7 km/h 91% 0 mm 325.00 W/m2
08:44 5.6 °C 4.4 °C 1026 hPa SSE 6.4 km/h 9.7 km/h 91% 0 mm 364.00 W/m2
08:49 5.6 °C 4.4 °C 1026 hPa SSW 11.3 km/h 4.8 km/h 92% 0 mm 381.00 W/m2
08:54 6.1 °C 4.4 °C 1026 hPa East 14.5 km/h 11.3 km/h 91% 0 mm 397.00 W/m2
08:59 6.1 °C 5 °C 1026 hPa East 14.5 km/h 14.5 km/h 91% 0 mm 415.00 W/m2
09:04 6.7 °C 5 °C 1026 hPa ESE 6.4 km/h 9.7 km/h 91% 0 mm 432.00 W/m2
09:09 6.7 °C 5 °C 1026 hPa SE 3.2 km/h 4.8 km/h 90% 0 mm 457.00 W/m2
09:14 7.2 °C 5 °C 1026 hPa South 6.4 km/h 3.2 km/h 89% 0 mm 492.00 W/m2
09:19 7.2 °C 5 °C 1026 hPa ESE 6.4 km/h 4.8 km/h 87% 0 mm 512.00 W/m2
09:24 7.8 °C 5 °C 1026 hPa SE 9.7 km/h 4.8 km/h 85% 0 mm 515.00 W/m2
09:29 7.8 °C 5 °C 1026 hPa South 9.7 km/h 9.7 km/h 83% 0 mm 497.00 W/m2
09:34 8.3 °C 5 °C 1026 hPa ENE 6.4 km/h 4.8 km/h 81% 0 mm 563.00 W/m2
09:39 8.3 °C 5 °C 1026 hPa SE 9.7 km/h 4.8 km/h 80% 0 mm 577.00 W/m2
09:44 8.3 °C 5 °C 1026 hPa SE 6.4 km/h 9.7 km/h 78% 0 mm 598.00 W/m2
09:49 8.9 °C 5 °C 1026 hPa South 17.7 km/h 8 km/h 78% 0 mm 612.00 W/m2
09:54 8.9 °C 5 °C 1026 hPa South 9.7 km/h 16.1 km/h 77% 0 mm 631.00 W/m2
09:59 9.4 °C 5.6 °C 1026 hPa East 3.2 km/h 9.7 km/h 76% 0 mm 645.00 W/m2
10:04 10 °C 5.6 °C 1026 hPa South 11.3 km/h 3.2 km/h 75% 0 mm 647.00 W/m2
10:09 10 °C 5.6 °C 1026 hPa SE 6.4 km/h 11.3 km/h 74% 0 mm 663.00 W/m2
10:14 10.6 °C 5.6 °C 1026 hPa SE 11.3 km/h 4.8 km/h 72% 0 mm 677.00 W/m2
10:19 10.6 °C 5.6 °C 1026 hPa ESE 3.2 km/h 11.3 km/h 71% 0 mm 691.00 W/m2
10:24 11.1 °C 5.6 °C 1026 hPa SE 3.2 km/h 3.2 km/h 71% 0 mm 714.00 W/m2
10:29 11.1 °C 5.6 °C 1026 hPa South 6.4 km/h 3.2 km/h 69% 0 mm 728.00 W/m2
10:34 11.7 °C 6.1 °C 1026 hPa SE 6.4 km/h 4.8 km/h 69% 0 mm 740.00 W/m2
10:39 11.7 °C 6.1 °C 1026 hPa SE 11.3 km/h 9.7 km/h 68% 0 mm 752.00 W/m2
10:44 12.2 °C 6.1 °C 1026 hPa SSE 14.5 km/h 11.3 km/h 67% 0 mm 765.00 W/m2
10:49 12.2 °C 6.1 °C 1026 hPa SW 9.7 km/h 14.5 km/h 67% 0 mm 773.00 W/m2
10:54 12.2 °C 6.1 °C 1026 hPa SW 3.2 km/h 9.7 km/h 66% 0 mm 779.00 W/m2
10:59 12.8 °C 6.1 °C 1026 hPa South 6.4 km/h 4.8 km/h 65% 0 mm 789.00 W/m2
11:04 12.8 °C 6.1 °C 1026 hPa South 11.3 km/h 9.7 km/h 65% 0 mm 816.00 W/m2
11:09 12.8 °C 6.1 °C 1026 hPa SSW 11.3 km/h 11.3 km/h 63% 0 mm 823.00 W/m2
11:14 13.3 °C 6.1 °C 1026 hPa SSW 8 km/h 11.3 km/h 63% 0 mm 830.00 W/m2
11:19 13.3 °C 6.1 °C 1026 hPa SSE 9.7 km/h 9.7 km/h 63% 0 mm 816.00 W/m2
11:23 13.3 °C 6.7 °C 1026 hPa SW 9.7 km/h 4.8 km/h 63% 0 mm 826.00 W/m2
11:29 13.9 °C 6.7 °C 1026 hPa SW 9.7 km/h 9.7 km/h 63% 0 mm 868.00 W/m2
11:34 13.9 °C 6.7 °C 1026 hPa SW 9.7 km/h 9.7 km/h 62% 0 mm 867.00 W/m2
11:39 13.9 °C 6.7 °C 1026 hPa WSW 9.7 km/h 9.7 km/h 62% 0 mm 861.00 W/m2
11:44 14.4 °C 7.2 °C 1026 hPa SE 17.7 km/h 16.1 km/h 62% 0 mm 882.00 W/m2
11:49 14.4 °C 6.7 °C 1026 hPa SW 9.7 km/h 16.1 km/h 60% 0 mm 891.00 W/m2
11:54 14.4 °C 7.2 °C 1026 hPa SSW 3.2 km/h 9.7 km/h 60% 0 mm 877.00 W/m2
11:59 15 °C 7.2 °C 1026 hPa SE 11.3 km/h 6.4 km/h 60% 0 mm 868.00 W/m2
12:04 15 °C 7.2 °C 1026 hPa South 9.7 km/h 11.3 km/h 59% 0 mm 893.00 W/m2
12:09 15.6 °C 7.2 °C 1026 hPa East 9.7 km/h 9.7 km/h 58% 0 mm 896.00 W/m2
12:14 16.1 °C 7.8 °C 1026 hPa SE 9.7 km/h 9.7 km/h 58% 0 mm 895.00 W/m2
12:19 16.1 °C 7.8 °C 1026 hPa SSE 8 km/h 4.8 km/h 58% 0 mm 900.00 W/m2
12:24 16.7 °C 7.2 °C 1026 hPa SSW 14.5 km/h 12.9 km/h 54% 0 mm 893.00 W/m2
12:29 16.7 °C 7.2 °C 1026 hPa SSW 14.5 km/h 14.5 km/h 53% 0 mm 849.00 W/m2
12:34 16.7 °C 7.2 °C 1026 hPa SSW 9.7 km/h 9.7 km/h 54% 0 mm 816.00 W/m2
12:39 16.7 °C 7.2 °C 1026 hPa SSE 14.5 km/h 9.7 km/h 53% 0 mm 795.00 W/m2
12:44 16.7 °C 7.2 °C 1026 hPa SSE 17.7 km/h 16.1 km/h 52% 0 mm 773.00 W/m2
12:49 16.7 °C 7.2 °C 1022.6 hPa SSE 14.5 km/h 14.5 km/h 53% 0 mm 691.00 W/m2
12:54 16.7 °C 7.2 °C 1022.6 hPa SSE 17.7 km/h 11.3 km/h 52% 0 mm 889.00 W/m2
12:59 16.7 °C 7.2 °C 1022.6 hPa SE 20.9 km/h 16.1 km/h 53% 0 mm 861.00 W/m2
13:04 17.2 °C 7.8 °C 1022.6 hPa SSE 17.7 km/h 20.9 km/h 54% 0 mm 700.00 W/m2
13:09 17.2 °C 7.2 °C 1022.6 hPa South 9.7 km/h 16.1 km/h 53% 0 mm 819.00 W/m2
13:14 17.2 °C 7.2 °C 1022.6 hPa SE 17.7 km/h 11.3 km/h 52% 0 mm 905.00 W/m2
13:19 17.2 °C 7.2 °C 1022.6 hPa SSW 16.1 km/h 16.1 km/h 52% 0 mm 847.00 W/m2
13:24 17.2 °C 7.8 °C 1022.6 hPa SSE 9.7 km/h 11.3 km/h 53% 0 mm 819.00 W/m2
13:29 17.8 °C 8.3 °C 1022.6 hPa SSE 14.5 km/h 9.7 km/h 55% 0 mm 837.00 W/m2
13:34 17.8 °C 7.8 °C 1022.6 hPa South 9.7 km/h 14.5 km/h 52% 0 mm 905.00 W/m2
13:39 17.8 °C 7.8 °C 1022.6 hPa South 20.9 km/h 17.7 km/h 52% 0 mm 840.00 W/m2
13:44 17.8 °C 7.8 °C 1022.6 hPa South 14.5 km/h 20.9 km/h 51% 0 mm 847.00 W/m2
13:49 18.3 °C 8.3 °C 1022.6 hPa ENE 6.4 km/h 11.3 km/h 52% 0 mm 835.00 W/m2
13:54 18.3 °C 7.8 °C 1022.6 hPa South 14.5 km/h 12.9 km/h 50% 0 mm 821.00 W/m2
13:59 18.3 °C 8.3 °C 1022.6 hPa SSE 17.7 km/h 14.5 km/h 51% 0 mm 791.00 W/m2
14:04 18.3 °C 7.8 °C 1022.6 hPa SSE 11.3 km/h 16.1 km/h 50% 0 mm 793.00 W/m2
14:09 18.9 °C 7.8 °C 1022.6 hPa SSW 19.3 km/h 11.3 km/h 50% 0 mm 735.00 W/m2
14:14 18.9 °C 7.8 °C 1022.6 hPa SSW 20.9 km/h 20.9 km/h 50% 0 mm 856.00 W/m2
14:19 18.9 °C 7.8 °C 1022.6 hPa SSE 25.7 km/h 16.1 km/h 50% 0 mm 853.00 W/m2
14:24 18.3 °C 8.3 °C 1022.6 hPa SSW 17.7 km/h 25.7 km/h 51% 0 mm 786.00 W/m2
14:29 18.3 °C 8.3 °C 1022.6 hPa SSW 20.9 km/h 12.9 km/h 51% 0 mm 779.00 W/m2
14:34 18.3 °C 7.8 °C 1022.6 hPa ESE 14.5 km/h 20.9 km/h 50% 0 mm 789.00 W/m2
14:39 18.9 °C 8.3 °C 1022.6 hPa ESE 14.5 km/h 14.5 km/h 51% 0 mm 684.00 W/m2
14:44 18.9 °C 8.3 °C 1022.6 hPa South 11.3 km/h 14.5 km/h 51% 0 mm 824.00 W/m2
14:49 18.9 °C 8.3 °C 1022.6 hPa South 9.7 km/h 11.3 km/h 50% 0 mm 823.00 W/m2
14:54 19.4 °C 8.3 °C 1022.6 hPa SSW 14.5 km/h 14.5 km/h 49% 0 mm 768.00 W/m2
14:59 19.4 °C 8.3 °C 1022.6 hPa SW 14.5 km/h 14.5 km/h 49% 0 mm 729.00 W/m2
15:04 19.4 °C 8.9 °C 1022.6 hPa SE 22.5 km/h 17.7 km/h 49% 0 mm 687.00 W/m2
15:09 19.4 °C 8.3 °C 1022.6 hPa SSE 22.5 km/h 22.5 km/h 48% 0 mm 700.00 W/m2
15:14 20 °C 8.3 °C 1022.6 hPa ESE 6.4 km/h 4.8 km/h 48% 0 mm 710.00 W/m2
15:19 20 °C 8.3 °C 1022.6 hPa SSE 14.5 km/h 8 km/h 48% 0 mm 647.00 W/m2
15:24 20 °C 8.3 °C 1022.6 hPa South 20.9 km/h 14.5 km/h 47% 0 mm 664.00 W/m2
15:29 20 °C 8.3 °C 1022.6 hPa SSE 14.5 km/h 20.9 km/h 48% 0 mm 677.00 W/m2
15:34 20 °C 8.9 °C 1022.6 hPa SSW 14.5 km/h 14.5 km/h 49% 0 mm 585.00 W/m2
15:39 20 °C 8.9 °C 1022.6 hPa South 14.5 km/h 14.5 km/h 49% 0 mm 596.00 W/m2
15:44 19.4 °C 8.3 °C 1022.6 hPa South 11.3 km/h 14.5 km/h 48% 0 mm 617.00 W/m2
15:49 19.4 °C 8.9 °C 1022.6 hPa SE 20.9 km/h 14.5 km/h 49% 0 mm 533.00 W/m2
15:54 19.4 °C 8.3 °C 1022.6 hPa East 4.8 km/h 20.9 km/h 49% 0 mm 446.00 W/m2
15:59 19.4 °C 8.3 °C 1022.6 hPa SSE 14.5 km/h 11.3 km/h 49% 0 mm 448.00 W/m2
16:04 19.4 °C 8.3 °C 1022.6 hPa SSE 17.7 km/h 16.1 km/h 49% 0 mm 417.00 W/m2
16:09 18.9 °C 8.3 °C 1022.6 hPa SE 20.9 km/h 12.9 km/h 50% 0 mm 457.00 W/m2
16:14 18.9 °C 8.9 °C 1022.6 hPa SSE 17.7 km/h 14.5 km/h 52% 0 mm 401.00 W/m2
16:19 18.9 °C 8.9 °C 1022.6 hPa SSE 11.3 km/h 16.1 km/h 52% 0 mm 457.00 W/m2
16:24 18.9 °C 8.3 °C 1022.6 hPa SE 11.3 km/h 11.3 km/h 50% 0 mm 533.00 W/m2
16:29 18.9 °C 8.3 °C 1022.6 hPa SSE 11.3 km/h 11.3 km/h 51% 0 mm 478.00 W/m2
16:34 18.9 °C 8.9 °C 1022.6 hPa SSE 6.4 km/h 11.3 km/h 52% 0 mm 221.00 W/m2
16:39 18.9 °C 8.9 °C 1022.6 hPa SE 8 km/h 4.8 km/h 52% 0 mm 385.00 W/m2
16:44 18.9 °C 8.3 °C 1022.6 hPa SE 11.3 km/h 9.7 km/h 51% 0 mm 529.00 W/m2
16:49 18.3 °C 8.3 °C 1022.6 hPa SSE 11.3 km/h 11.3 km/h 52% 0 mm 508.00 W/m2
16:54 18.3 °C 8.3 °C 1022.6 hPa ESE 3.2 km/h 11.3 km/h 52% 0 mm 188.00 W/m2
16:59 18.3 °C 8.3 °C 1022.6 hPa SE 9.7 km/h 4.8 km/h 52% 0 mm 174.00 W/m2
17:04 18.3 °C 8.3 °C 1022.6 hPa SE 6.4 km/h 9.7 km/h 52% 0 mm 250.00 W/m2
El Dorado Weather
Compliments of Weather Underground - 2 mb